Location: Lafig�re
(44.4503°N, 4.0357°E)
Time: 14:36:55
(UTC+00:00)

Vanguard 2 Rocket - Pass Details

Date: 01 February 2021
Orbit: 554 x 3325 km, 32.9° (Epoch: 06 March)

Event Time Altitude Azimuth Distance (km) Brightness Sun altitude
Rises 16:29:41 0° 270° (W) 6,673 12.6 3.0°
Reaches altitude 10° 16:35:05 10° 264° (W) 5,260 12.3 2.1°
Maximum altitude 16:47:20 37° 205° (SSW) 2,535 9.8 0.1°
Drops below altitude 10° 16:54:50 10° 142° (SE) 3,215 9.6 -1.1°
Sets 16:57:20 0° 133° (SE) 3,886 9.9 -1.5°
